-> Other stations

1455

Speed(max): 3.8(5.4)knots
Direction:78° ( ENE)
Temperature: 14.8°C
Arrived: 2026-05-05 01:53:53 CEST

Past data:
hh:mmknots
Dir (°)
°C
01:51 1.1 4.3 ESE(115) 14.5
01:49 1.1 2.2 SE(124) 14.3
01:47 1.1 2.7 SE(128) 14.3
01:45 1.1 2.2 SE(124) 14.2
01:43 0.5 1.6 SE(128) 14.2
01:41 0 0 SE(127) 14.1
01:39 0 0 SE(126) 14.0
01:37 0 0 SE(128) 14.1
01:35 0 0 ESE(123) 14.2
01:33 0 0 SE(124) 14.2
01:31 0 1.1 ESE(123) 14.2
01:29 0.5 1.6 SE(124) 14.2
01:27 1.1 1.6 ESE(123) 14.3
01:25 1.1 1.6 SE(127) 14.5
15 min. averages:
hh:mmknots
Dir (°)
°C
01:45 0 1.6 SE(126) 14.1
01:30 1.1 2.7 SE(125) 14.4
01:15 0.5 2.2 SE(125) 13.7
01:00 0 0 SE(126) 13.3
00:45 0 0 SE(126) 13.7
00:30 0 1.6 SE(124) 13.0
00:15 0 0 SE(125) 12.7
00:00 0 0 SE(125) 13.0
23:45 0 0 SE(125) 13.4
23:30 0 0 SE(125) 13.1
23:15 0.5 1.6 SE(125) 13.3
23:00 0.5 2.2 SE(125) 13.5
22:45 0 1.6 SE(125) 13.0
22:30 1.1 2.2 SE(126) 12.8
22:15 0.5 2.2 SE(125) 12.8
Stations at HR:
1455
-> Other regions

Desktop view
Data provided by Holfuy.
© Holfuy Weather 2026